HORS 3 (RS81S)

Last updated on Sun Jun 21 2026 00:03:20 GMT+0000 (Coordinated Universal Time)

1 61753U 24199U 26171.43560999 .00031554 00000+0 46807-3 0 9994 2 61753 97.2969 47.3410 0003799 258.6901 101.3927 15.55165366138068
UTC large
Height (km)
Speed (km/s)
/
Latitude / Longitude
Inclination (degrees)
Orbital Period (minutes)
Azimuth
Elevation
Range (km)
Doppler Factor

Next 0 passes for location: London (51.5072 / 0.1276)

No passes found over London.
HORS 3 (RS81S)